STARLINK-34475

Last updated on Sat Jul 19 2025 00:02:07 GMT+0000 (Coordinated Universal Time)

1 64603U 25137K 25199.58335648 -.01533903 00000+0 -16346-1 0 9991 2 64603 53.1593 355.2842 0000982 107.4688 272.9550 15.66250818 4757
UTC large
Height (km)
Speed (km/s)
/
Latitude / Longitude
Inclination (degrees)
Orbital Period (minutes)
Azimuth
Elevation
Range (km)
Doppler Factor

Next 0 passes for location: London (51.5072 / 0.1276)

Sorry there are no passes over London.